Theta_e
291 291 290 290 290 289 288 287 288 288 289 288 288 288 288 288 289 288 288 288 288 289 289 288 288 288 288 288 288 288 288 288 288 289 289 289 289 293 298 300 303 305 307 309 311 313 315 316 317 318 318 319 319 320 321 321 321 321 322 322 322 323 323 323 323 324 326 327 329 331 332 333 335 338 339 339 340 341 342 343 344 345 345 345 345
291 290 290 289 289 289 288 287 287 288 288 288 288 288 287 287 288 288 288 287 288 289 288 287 287 287 287 287 287 287 288 288 288 288 288 289 289 291 296 298 301 304 305 307 310 312 313 314 315 316 317 319 319 319 319 319 320 320 320 321 322 322 323 323 323 324 324 325 326 328 330 332 333 335 337 338 339 339 340 341 342 342 344 345 345
291 290 289 289 288 288 287 287 286 287 287 287 288 288 287 287 288 287 287 287 287 287 288 287 286 286 287 287 287 287 287 288 288 288 288 288 288 289 292 296 299 302 304 306 308 309 311 312 314 314 316 317 317 317 317 318 319 319 320 320 321 322 323 323 323 323 323 324 325 325 327 328 329 331 333 336 338 339 339 339 340 341 341 343 344
291 290 289 289 288 287 287 286 286 286 287 287 287 287 287 288 288 287 287 287 287 286 288 286 285 286 286 286 286 286 287 287 287 287 287 288 288 288 289 292 296 299 302 304 307 308 309 310 312 313 314 315 316 316 317 317 318 318 319 320 321 321 321 321 320 321 321 322 322 323 324 325 326 328 329 331 332 336 338 338 339 339 340 340 342
290 290 291 288 288 287 286 287 287 287 287 288 287 286 286 286 287 288 287 286 286 286 287 286 285 285 285 286 286 286 286 286 287 287 287 287 287 287 288 290 290 296 298 301 304 306 308 309 309 311 312 313 314 315 315 316 317 318 318 318 319 320 320 319 319 320 321 322 322 322 322 322 323 323 325 328 329 331 334 337 338 338 339 339 340
290 289 289 288 288 287 286 286 286 287 287 287 286 286 286 286 286 286 289 285 284 285 285 284 284 284 284 285 285 285 286 286 286 286 286 287 287 287 288 288 289 290 292 298 300 303 307 308 309 310 311 311 312 312 313 314 316 316 316 317 319 319 318 318 318 320 321 322 322 322 322 323 323 324 324 325 326 328 330 332 336 338 338 338 339
290 289 288 288 287 286 286 286 287 286 286 286 285 285 285 286 286 284 283 284 284 286 284 284 284 284 284 285 285 286 286 286 286 286 286 286 286 287 288 288 289 290 292 291 295 299 303 306 308 308 310 310 309 309 310 312 314 314 315 316 317 317 316 316 316 317 318 318 318 318 319 320 319 320 321 322 324 326 327 329 331 335 338 338 339
289 289 288 287 287 286 286 286 286 286 286 286 285 285 285 286 285 283 283 284 285 283 284 283 284 284 284 285 285 286 285 285 285 285 285 286 286 287 288 288 289 290 295 292 292 295 301 303 305 307 309 307 306 307 308 311 313 313 313 315 315 315 315 315 315 316 316 315 314 315 317 317 318 319 319 320 321 322 325 327 328 331 334 336 337
289 288 288 287 286 286 285 286 287 285 285 285 285 286 285 285 284 285 283 283 283 283 283 283 283 284 284 284 284 285 284 284 285 285 287 286 286 286 287 288 290 294 290 291 292 292 296 301 303 305 306 304 304 306 306 309 311 311 311 312 313 314 314 313 314 314 313 312 313 314 315 316 316 318 319 320 320 321 321 323 326 327 330 333 336
288 288 287 287 286 286 286 286 286 285 284 284 284 284 284 283 283 283 284 283 282 282 283 283 284 284 284 283 284 284 284 284 285 289 285 285 285 285 288 289 289 290 291 291 291 292 292 295 300 301 301 301 303 304 305 306 307 309 309 310 310 312 312 312 312 312 311 311 312 313 314 315 315 316 318 319 320 321 322 322 323 325 327 328 331
288 288 287 287 286 286 285 286 286 284 284 284 284 284 283 282 282 282 283 282 282 283 283 283 283 283 283 283 284 284 284 284 285 284 283 284 286 290 289 289 289 289 290 289 288 287 288 289 290 290 290 297 301 303 304 304 305 305 307 308 310 311 310 311 311 310 310 310 312 313 313 314 314 314 315 315 316 318 320 322 323 324 326 327 328
288 287 287 286 286 285 285 285 285 284 284 283 283 282 282 282 282 282 282 284 284 283 282 282 282 281 283 283 283 283 282 284 283 283 286 285 284 286 285 286 284 284 285 285 285 286 286 287 288 287 289 293 299 300 301 301 301 303 304 306 308 309 309 309 309 309 309 310 311 312 312 312 313 314 315 315 316 316 317 318 319 321 323 325 327
288 287 286 287 286 285 285 284 284 284 284 284 283 282 282 282 284 284 281 280 281 281 282 282 280 279 280 281 282 282 284 285 283 283 283 283 283 283 283 283 283 283 284 285 285 285 286 286 287 287 288 289 290 295 297 298 299 301 303 304 306 307 308 308 308 308 308 308 309 311 311 311 312 313 314 315 316 317 317 318 318 319 320 322 324
288 287 286 286 285 285 285 284 284 284 284 283 282 285 284 282 282 281 282 280 280 282 283 280 278 278 278 278 279 281 283 282 283 281 283 284 283 283 283 283 284 284 285 284 284 284 285 286 286 287 288 288 288 288 289 291 293 298 301 303 304 306 306 307 307 308 308 308 309 310 310 311 312 313 313 314 315 316 317 317 318 319 319 320 321
287 287 286 286 285 285 284 284 284 284 284 282 283 283 282 282 281 281 280 281 281 283 281 281 278 279 279 278 275 277 281 279 280 282 284 283 283 282 284 283 284 283 284 283 283 284 286 286 286 287 287 287 287 287 289 291 291 295 297 298 300 303 304 305 307 307 308 308 309 309 310 311 311 312 313 314 315 316 316 317 318 319 319 320 320
287 286 286 285 285 285 284 284 284 284 283 283 282 282 281 281 281 282 280 279 278 280 282 280 279 278 276 277 276 277 275 276 278 281 282 281 282 282 282 283 282 282 283 283 284 284 285 285 285 286 286 286 287 287 288 287 290 292 293 295 296 298 301 304 305 306 307 308 308 309 309 310 310 311 312 312 313 314 314 315 315 316 318 318 319
287 286 286 285 284 284 284 284 283 283 283 282 282 282 281 281 282 281 279 279 279 278 280 281 279 282 278 277 275 275 275 275 278 278 279 279 281 281 283 283 281 282 283 283 283 283 284 284 285 285 285 286 286 286 286 286 286 289 290 290 292 295 298 301 303 305 306 307 308 308 308 309 309 310 311 311 312 313 313 313 314 314 315 316 317
286 286 286 285 284 284 284 283 283 283 283 282 282 281 281 281 281 281 280 279 280 278 277 281 281 281 280 278 277 276 275 276 277 275 278 281 281 280 281 281 281 281 281 281 282 283 285 284 284 284 284 284 284 284 285 285 287 287 286 287 294 295 295 297 301 303 305 306 306 307 308 308 308 309 310 311 312 313 313 314 314 314 314 315 315
286 286 285 285 284 284 283 283 283 282 283 281 281 281 281 281 281 280 280 282 280 277 278 278 278 279 280 279 280 281 279 278 275 275 275 277 277 278 278 280 280 280 281 281 281 281 282 283 283 282 282 283 283 283 284 285 288 290 291 292 293 294 295 295 297 299 302 303 304 305 306 308 309 310 310 310 311 312 313 313 314 314 315 315 316
286 285 285 285 284 283 283 283 282 282 283 281 281 281 281 282 281 281 281 281 279 278 278 278 277 278 280 278 279 279 278 278 278 276 275 273 276 279 279 278 279 279 280 280 280 280 280 281 281 281 281 282 282 283 283 284 284 284 285 291 292 293 295 295 296 296 298 300 302 305 306 307 307 307 307 307 308 310 311 311 312 313 314 315 314
286 285 285 284 285 283 282 282 282 282 283 281 281 281 281 281 280 280 280 279 280 279 278 277 278 277 276 277 277 277 277 277 277 277 276 274 274 275 277 279 279 279 279 280 280 280 281 281 281 282 283 282 282 282 282 283 283 283 287 290 291 293 294 294 294 295 296 296 298 300 302 304 305 306 307 308 309 310 311 311 312 312 313 314 314
285 285 284 284 284 283 282 282 282 282 282 281 280 280 280 280 280 280 280 279 279 279 279 278 278 278 278 277 277 277 276 276 276 275 275 275 274 274 275 275 275 277 279 279 279 280 280 280 280 280 281 281 281 281 281 282 283 284 286 290 290 291 292 292 294 295 295 295 296 297 298 301 303 304 305 306 307 308 309 310 310 311 312 313 314
284 284 284 284 283 283 282 282 281 282 282 280 280 281 280 280 280 279 279 279 279 280 282 279 279 278 277 277 277 277 276 276 275 276 275 274 274 274 275 276 275 275 277 279 280 280 280 280 280 280 280 280 281 281 281 281 284 287 289 289 289 290 291 292 293 293 293 293 294 294 295 296 297 299 301 303 304 305 306 308 308 309 310 311 312
284 283 283 283 283 282 282 281 281 281 281 280 280 280 280 279 279 279 278 278 278 279 279 278 278 278 277 277 277 278 277 276 277 277 276 275 275 274 274 275 275 276 277 278 279 279 279 279 279 279 280 280 281 281 282 283 283 288 287 288 288 289 291 292 291 291 291 292 292 293 295 295 296 296 298 301 303 305 306 307 307 308 309 309 309
283 283 283 282 282 281 281 281 281 281 281 280 280 280 279 279 279 278 278 278 278 278 278 277 277 277 277 277 277 277 277 277 277 277 277 276 275 273 274 275 273 274 276 276 276 277 279 279 280 279 279 279 281 281 281 282 282 286 286 286 287 287 288 288 289 289 290 291 292 292 293 294 295 296 298 299 301 303 305 306 306 307 308 309 310
283 283 284 283 282 282 282 281 280 280 280 280 279 279 279 278 278 278 278 278 278 277 277 277 277 277 277 276 276 276 277 277 277 277 276 275 274 274 274 274 274 274 275 275 276 276 276 278 278 279 278 278 279 280 280 281 281 284 284 283 283 285 286 288 289 290 290 290 291 292 292 292 294 295 296 299 300 301 303 304 305 306 307 308 309
284 284 283 283 282 281 281 280 280 280 280 279 280 279 278 278 278 278 277 277 277 277 277 277 277 276 276 276 277 276 276 276 276 276 277 276 275 275 274 272 272 273 273 275 275 275 276 276 278 277 278 279 279 278 279 279 281 283 283 280 280 283 285 287 288 289 289 290 290 291 291 291 292 293 294 295 297 298 300 301 303 304 305 305 305
284 284 283 283 282 281 281 280 280 279 279 279 279 278 278 278 277 277 277 278 277 277 276 276 276 276 276 276 276 276 276 276 276 276 276 276 276 276 275 273 271 270 273 273 274 274 276 276 277 278 278 278 279 278 281 280 278 282 282 279 279 280 283 285 286 288 288 289 290 290 290 290 291 292 293 293 293 294 296 297 297 297 297 297 297
284 284 282 282 282 281 280 280 279 279 279 279 278 278 278 278 277 277 277 277 277 276 276 276 276 276 275 275 275 276 275 276 276 277 276 276 276 275 275 274 274 271 270 271 272 273 275 276 276 276 277 277 277 278 277 277 279 280 278 278 278 278 280 283 285 287 287 288 288 288 289 289 290 291 291 292 292 293 294 294 294 295 295 296 297
284 283 282 282 281 281 280 279 279 279 279 278 278 278 277 277 277 277 277 276 276 276 276 275 275 275 275 275 275 275 275 275 275 275 276 275 275 275 275 275 274 272 272 270 270 274 274 276 277 276 276 276 277 277 277 276 279 278 277 277 277 277 281 282 283 284 285 286 286 288 289 289 289 289 290 290 291 292 293 293 293 294 295 296 298
283 282 282 281 281 280 280 279 279 278 278 278 278 277 277 276 276 276 276 276 275 275 275 275 275 275 274 274 274 274 274 275 275 275 275 275 275 274 274 275 275 274 273 272 269 273 274 274 275 276 275 276 276 276 276 276 277 278 276 276 276 279 280 279 281 282 283 284 285 286 287 287 288 288 289 289 290 291 292 292 292 293 294 295 297
282 282 281 281 280 280 279 279 278 278 278 277 277 277 276 276 276 275 275 275 275 274 274 275 275 275 274 274 274 274 274 274 274 274 274 275 275 274 274 274 273 273 273 272 270 270 275 275 275 276 276 275 275 274 274 275 276 278 276 275 276 279 277 276 279 281 282 283 284 285 286 287 287 288 288 288 289 290 291 291 292 292 293 294 296
282 281 281 281 280 280 279 278 278 278 277 277 277 276 276 275 275 275 275 275 274 274 274 274 274 274 274 273 273 273 274 273 273 273 274 273 273 274 274 273 272 272 272 271 269 270 272 274 274 274 274 274 273 274 273 274 274 275 277 275 275 275 275 275 275 279 280 282 283 284 285 286 287 287 288 288 289 289 290 290 291 292 293 294 295
282 281 281 281 280 279 279 278 278 277 277 277 276 276 275 275 274 274 274 274 274 273 273 273 273 274 273 273 273 273 273 272 272 272 272 272 272 272 272 272 271 271 272 271 270 269 269 272 272 273 273 274 272 273 273 273 273 274 274 274 275 275 274 275 275 275 279 281 282 284 285 286 287 288 288 288 288 289 290 291 291 291 292 293 293
281 281 281 280 280 279 278 278 277 277 277 276 276 276 275 275 274 274 274 274 273 273 273 272 272 273 272 272 272 272 272 271 272 272 272 272 272 272 271 272 271 271 271 271 270 268 268 269 271 271 272 273 272 272 273 274 274 274 273 274 274 275 276 275 275 275 279 282 283 285 285 286 286 287 287 288 288 288 289 290 290 290 290 291 292
280 280 280 280 279 278 278 277 277 276 276 275 275 275 275 274 274 274 273 273 273 273 272 272 272 272 271 271 271 271 271 271 271 271 271 271 271 271 271 271 271 270 271 271 271 269 269 268 270 270 272 272 272 273 274 274 274 274 274 274 275 274 274 275 275 275 278 282 283 284 284 285 285 286 286 287 287 288 288 289 289 289 290 290 290
280 279 279 279 278 278 277 277 276 275 275 275 275 274 274 274 274 273 273 273 272 272 272 272 273 271 271 271 271 270 270 270 270 270 271 270 271 271 270 270 270 270 271 271 270 271 269 269 270 271 272 272 273 273 274 273 274 274 274 274 274 274 275 275 276 276 279 281 282 282 282 283 284 285 286 286 286 287 287 288 288 289 289 289 289
279 279 278 278 278 277 277 276 276 275 275 275 274 274 274 273 273 273 272 272 272 272 271 271 271 271 270 270 270 270 270 270 270 270 271 270 270 270 270 270 270 270 270 271 271 271 270 270 270 270 272 272 272 273 274 274 273 273 273 274 275 275 274 274 275 276 277 277 276 277 279 280 281 283 284 285 286 287 287 287 288 288 288 288 288
279 278 278 277 277 277 276 275 275 274 274 274 273 273 273 272 272 272 271 271 271 271 271 270 270 270 270 270 270 270 270 270 270 270 270 270 270 270 270 270 271 271 271 271 272 271 271 270 271 271 271 273 273 272 274 275 274 274 272 273 273 275 275 275 275 276 276 276 279 281 281 281 282 281 283 285 286 286 287 287 288 288 287 287 288
278 278 277 277 276 276 275 275 274 274 273 273 273 272 272 272 271 271 271 270 270 270 270 270 270 270 270 271 271 271 271 271 271 271 271 270 271 270 271 272 272 272 271 272 272 271 271 271 271 271 272 272 273 274 275 274 273 273 275 274 272 273 274 276 276 275 276 277 276 276 279 280 280 281 283 283 284 285 285 285 285 285 285 286 287
278 277 277 276 275 274 274 274 273 273 273 273 272 272 271 271 271 270 270 270 269 269 270 270 270 270 271 271 271 271 272 273 274 274 274 273 272 271 272 273 273 272 272 272 272 272 271 271 271 272 272 272 273 273 273 273 272 272 274 275 274 275 275 275 276 277 277 276 276 276 276 277 276 276 277 277 278 280 281 282 283 284 285 286 286
277 276 275 275 274 274 273 272 272 272 272 272 274 276 275 271 270 270 269 269 270 270 270 270 270 271 271 271 272 274 275 275 276 276 277 278 278 276 275 275 274 274 273 273 273 273 272 271 271 272 272 272 273 273 273 274 275 275 275 275 273 274 275 274 274 275 277 276 275 275 276 277 277 276 277 276 278 280 279 280 280 281 283 284 286
275 275 274 274 273 273 273 272 271 271 271 271 277 278 278 277 271 270 270 270 271 271 271 270 270 271 272 273 273 275 276 276 276 277 278 278 278 279 279 279 278 276 274 274 274 274 273 272 273 273 272 272 273 274 274 275 275 275 275 275 274 274 272 271 270 274 277 276 275 274 274 277 277 275 276 277 278 278 279 279 283 283 284 286 287
274 273 273 273 273 272 272 271 271 271 270 274 279 279 279 278 275 270 270 270 271 271 271 271 272 273 273 274 274 274 275 274 274 274 275 277 277 278 278 278 279 279 279 276 274 273 274 273 273 273 273 273 274 275 275 275 274 274 274 274 273 273 272 272 272 271 275 277 275 274 273 276 277 276 275 276 277 278 278 281 284 285 286 286 287
273 272 273 273 272 272 271 271 270 270 270 276 279 280 280 279 277 273 271 271 271 271 272 273 273 273 274 274 274 274 274 276 275 274 274 274 276 277 277 277 278 278 279 279 280 277 276 274 274 274 274 274 273 273 274 274 275 273 274 273 274 274 274 273 273 273 275 277 275 274 273 275 276 275 275 276 277 277 278 282 284 284 285 286 286
272 272 272 272 271 271 270 270 270 270 269 276 280 281 280 280 278 275 272 272 272 273 273 273 274 274 274 274 273 273 273 273 273 273 272 272 272 273 273 274 274 275 277 278 278 279 278 276 274 273 274 274 273 274 275 277 275 274 274 273 274 274 274 273 275 275 277 278 275 274 272 274 276 276 275 276 277 277 277 280 283 285 285 286 287
272 272 271 271 270 270 270 270 269 269 269 277 280 281 281 281 280 276 273 273 274 274 274 275 274 274 275 274 274 273 272 272 273 273 272 272 273 273 273 274 275 275 276 276 276 276 275 275 274 274 275 276 276 276 277 277 276 276 276 275 275 275 276 276 276 276 276 278 277 275 271 274 277 275 275 276 277 277 277 281 284 285 285 286 286
272 272 271 271 270 269 269 269 269 269 270 277 281 282 282 282 282 276 274 274 274 274 274 275 275 275 274 273 272 272 271 271 274 276 276 275 274 273 273 274 274 275 275 277 278 279 278 277 277 276 276 277 279 277 278 278 277 277 277 276 275 273 272 270 269 271 272 274 276 275 273 273 276 275 275 276 277 276 278 278 282 284 285 286 286
271 271 270 270 270 269 269 269 269 269 269 276 281 282 282 282 281 276 275 274 274 273 273 274 274 274 273 272 271 271 271 271 274 276 277 277 274 273 273 273 273 273 273 276 278 279 279 279 279 279 280 280 281 281 280 280 277 276 273 270 269 269 268 267 268 269 269 272 274 275 274 272 275 275 275 276 276 277 277 278 278 282 284 285 286
271 270 270 270 270 269 269 269 270 270 270 275 281 282 282 282 280 275 274 273 273 273 272 273 272 272 273 274 273 272 272 273 276 277 277 276 274 274 273 273 272 273 273 274 274 275 277 277 278 278 278 278 278 278 277 276 276 275 270 267 269 269 267 267 266 268 269 271 273 276 273 272 274 275 274 275 276 277 277 278 279 280 283 284 285
271 270 270 269 269 269 269 270 272 271 270 275 281 281 281 282 279 275 274 273 272 272 272 271 272 272 272 274 275 275 274 275 276 277 277 276 274 274 273 273 272 271 272 273 272 271 271 272 273 272 271 271 270 268 269 273 274 274 271 269 269 268 267 267 267 268 268 270 274 277 273 273 274 276 276 274 273 276 279 278 279 279 280 280 281
Wind_Speed
7 7 6 6 6 5 4 4 3 3 3 3 3 4 5 3 4 4 5 5 5 5 4 4 4 5 5 6 5 6 6 6 5 5 5 6 5 6 12 13 13 13 13 12 12 12 12 12 13 13 13 13 13 12 13 13 14 15 15 15 15 15 15 16 16 17 17 16 16 15 14 13 13 12 12 13 15 15 16 17 16 16 15 15 16
8 6 7 7 6 5 4 4 4 3 3 4 3 4 4 3 4 4 4 4 5 4 4 4 5 4 5 5 5 5 5 5 6 5 5 6 6 6 11 13 13 13 13 13 13 13 13 14 15 15 14 14 14 14 14 14 14 15 15 15 15 15 15 15 15 16 17 17 17 16 16 15 14 13 12 12 12 14 16 17 18 17 16 15 16
8 8 7 7 6 6 5 4 4 3 3 3 2 3 3 4 4 4 4 4 4 3 5 5 5 5 4 5 6 6 6 6 5 5 5 6 6 5 5 10 12 12 12 12 13 13 14 14 14 14 14 14 15 15 15 15 15 15 15 16 15 15 14 15 15 16 17 17 17 17 17 16 16 16 15 13 12 12 14 16 16 19 19 16 15
8 8 8 7 7 6 5 5 4 3 3 3 3 3 4 3 3 3 3 4 3 4 3 5 5 5 5 5 5 6 6 6 6 6 5 5 5 5 5 6 10 12 12 13 14 14 15 15 15 15 15 15 16 16 16 16 15 16 16 16 16 15 14 15 16 16 17 17 17 18 18 18 18 17 17 16 14 13 12 13 16 17 18 20 18
8 8 8 7 7 6 5 5 5 4 3 3 3 3 3 4 4 3 4 3 3 4 3 3 4 5 5 6 6 6 6 6 6 6 6 6 6 6 5 5 5 8 11 12 13 14 15 15 15 16 15 15 15 16 16 16 16 16 16 16 16 15 15 16 16 16 17 17 17 18 18 19 19 19 18 18 17 15 14 13 14 15 17 18 19
8 7 7 7 7 6 6 5 5 4 3 3 4 4 4 4 3 4 3 3 4 3 4 5 4 4 5 5 5 6 6 6 6 6 5 6 6 5 5 5 5 5 5 8 10 11 13 15 16 16 15 15 15 16 17 16 16 16 16 16 16 15 16 16 17 17 17 18 18 18 17 17 18 19 19 19 18 18 17 16 14 14 15 16 18
7 8 7 7 7 6 6 6 5 4 5 3 5 3 4 4 3 4 3 3 3 3 3 3 4 6 5 5 6 6 6 6 6 5 5 6 5 5 5 5 5 5 5 5 6 9 12 14 16 16 16 15 15 16 17 16 15 15 16 16 16 15 16 17 18 17 18 19 19 20 20 19 20 20 21 21 21 19 18 18 17 16 15 16 16
7 7 7 7 7 7 6 5 5 5 5 3 3 5 4 4 1 2 3 3 3 4 3 3 3 5 5 5 6 6 6 5 6 6 5 5 5 5 5 5 4 4 4 4 5 6 10 12 14 15 15 14 15 16 17 16 16 16 16 16 16 16 17 18 18 17 18 18 19 19 19 19 20 20 20 21 21 21 21 19 18 18 18 17 17
7 6 7 7 6 6 6 6 5 5 5 4 4 3 4 3 2 2 3 4 4 4 4 3 5 5 6 6 6 6 6 5 5 5 5 4 4 4 4 4 4 5 4 3 5 4 6 10 12 13 13 14 16 17 17 17 16 17 17 17 17 17 18 18 17 17 19 19 19 19 19 19 19 20 20 20 20 21 21 21 20 19 19 19 18
7 6 7 6 6 6 6 6 6 6 5 4 3 3 3 3 3 2 3 4 5 4 4 5 5 6 6 7 8 6 5 5 5 3 5 4 4 4 4 4 4 4 5 4 3 3 4 6 9 9 9 12 16 17 17 17 18 18 19 18 18 18 18 18 18 19 20 20 19 18 18 19 19 19 20 20 20 21 21 21 21 20 20 20 20
8 7 8 7 7 6 6 6 6 6 6 5 4 3 3 2 3 3 2 3 3 1 1 4 5 6 6 7 7 7 5 4 3 3 3 3 3 3 4 5 4 4 4 3 3 4 4 4 4 4 6 11 14 16 17 17 18 19 19 19 19 19 19 19 19 20 21 21 20 18 19 19 20 20 21 21 21 21 22 22 22 22 21 20 20
8 8 8 7 7 7 7 6 6 6 7 6 5 5 5 4 3 3 3 2 2 1 2 3 3 5 6 6 7 7 5 3 3 2 1 2 3 3 4 4 3 3 3 3 4 4 3 4 5 6 5 8 12 14 16 17 18 19 19 19 20 20 20 20 20 20 21 21 20 19 19 20 20 21 21 21 21 21 21 21 22 23 24 24 23
8 8 8 8 7 6 6 5 5 6 6 6 5 5 4 4 4 2 3 3 2 3 3 1 4 4 2 4 7 5 3 2 2 2 2 3 2 2 3 3 3 3 3 3 4 4 4 6 6 6 7 6 7 10 13 15 15 17 19 20 21 21 21 21 20 20 22 22 21 20 20 21 21 21 21 21 21 21 21 21 22 23 23 23 23
8 8 8 8 8 7 7 7 7 6 5 4 4 4 4 4 4 3 1 3 2 1 4 2 5 2 6 7 6 7 3 2 2 1 6 5 2 1 2 3 4 4 3 5 4 4 4 4 4 6 6 6 6 6 7 7 8 14 20 21 21 21 20 20 20 22 24 23 22 21 21 21 21 21 22 21 22 21 21 21 22 22 23 24 24
9 9 9 8 8 8 8 7 7 7 7 6 5 5 5 5 5 6 5 1 3 1 3 4 1 3 2 0 3 6 5 3 3 5 9 4 1 2 4 3 4 3 3 3 3 3 4 4 4 4 5 5 5 5 5 6 8 14 19 20 19 18 18 20 22 24 24 23 22 22 21 21 21 21 21 22 22 22 22 22 22 22 22 23 24
9 9 8 8 8 9 7 7 7 7 8 8 7 7 6 5 4 5 6 5 2 1 2 3 2 2 5 1 2 1 2 1 5 9 5 2 1 3 1 3 3 3 3 2 3 3 4 3 4 5 5 4 4 4 5 5 9 12 14 13 12 17 20 22 23 23 23 22 22 22 22 22 22 22 22 22 23 24 24 24 23 23 23 23 24
9 9 8 9 8 7 8 7 7 7 7 8 8 8 7 6 7 6 5 7 5 3 0 1 3 1 2 2 3 2 1 3 6 6 2 4 1 1 2 1 3 3 3 3 3 4 3 4 5 5 4 4 4 4 5 5 6 5 7 7 11 18 21 22 22 22 22 22 22 22 22 22 22 22 23 24 24 24 25 25 25 25 24 24 24
9 9 8 7 8 8 7 8 8 8 7 7 7 6 6 7 7 6 5 4 7 6 3 0 1 1 1 2 2 2 3 3 2 6 3 8 5 2 1 1 2 3 2 3 3 4 4 6 5 5 4 4 4 4 4 4 4 5 5 7 17 19 18 20 21 22 22 22 22 23 23 23 23 23 23 24 24 25 25 25 26 26 25 25 25
9 9 8 8 7 7 8 8 7 7 6 7 7 8 7 7 5 5 6 6 6 5 7 4 1 2 2 3 2 1 1 2 2 4 8 2 2 3 2 1 2 2 2 2 3 4 5 5 5 4 5 4 4 4 4 4 5 6 8 11 16 16 17 18 19 20 21 22 22 23 23 23 23 23 24 24 25 26 26 26 26 26 26 26 26
10 9 9 8 8 8 7 7 8 7 7 7 8 7 6 4 5 5 5 6 6 8 6 6 6 2 1 2 2 1 1 0 0 2 3 10 10 3 5 3 1 4 4 3 3 5 6 5 5 5 5 4 5 5 5 5 4 4 4 10 15 16 17 18 18 19 20 20 21 21 22 23 24 25 26 26 26 26 27 27 27 28 27 27 27
9 10 9 9 8 8 8 7 7 7 7 6 6 7 8 8 7 6 6 6 5 6 7 7 6 5 2 0 1 0 1 0 0 2 3 3 10 12 11 3 3 5 2 2 6 5 5 5 3 3 5 5 5 5 5 5 6 5 5 10 14 15 17 18 19 19 20 21 21 22 22 22 23 23 24 25 25 26 26 26 27 27 27 27 28
9 9 9 9 9 8 8 8 8 8 7 7 7 7 7 6 7 7 6 6 4 6 7 7 6 5 4 4 2 1 1 1 1 2 1 4 9 8 10 16 20 7 4 3 3 5 5 3 4 4 4 5 5 3 4 5 5 5 6 11 12 15 17 18 20 20 20 20 21 21 21 22 23 24 24 25 26 27 27 27 28 27 28 28 28
8 8 10 9 8 8 8 8 7 7 7 8 8 8 8 7 6 5 5 6 6 6 6 5 5 5 4 5 6 5 5 4 3 2 2 3 3 7 8 7 9 15 15 9 7 6 5 4 3 4 4 4 4 4 5 5 5 5 9 11 14 16 17 19 20 21 21 22 22 23 23 23 24 24 26 27 28 29 30 30 30 30 29 29 29
8 8 9 9 9 8 7 7 7 7 8 7 7 7 6 6 6 6 5 4 5 6 6 6 5 5 4 4 5 5 4 5 4 4 5 5 5 8 8 6 7 9 10 14 13 10 6 3 3 3 3 3 4 4 5 5 5 8 7 9 15 17 18 20 20 21 21 22 23 23 24 25 26 26 27 28 29 29 30 30 31 31 31 31 31
11 11 10 11 10 10 9 10 9 8 7 7 6 7 7 6 6 5 5 6 6 7 7 6 7 6 5 4 5 4 5 4 4 4 4 5 5 8 7 5 8 9 8 4 6 7 8 8 6 3 3 3 3 3 2 3 3 7 14 9 19 19 21 22 22 23 23 24 25 25 26 26 27 27 27 28 28 28 28 28 29 29 30 30 31
14 14 13 13 11 11 10 9 7 6 7 7 7 7 7 7 6 7 6 5 5 6 7 6 6 5 5 5 4 5 4 3 4 4 5 4 5 6 8 6 8 10 5 3 3 2 3 3 4 5 4 4 4 4 5 5 6 13 20 14 15 21 22 22 23 23 24 24 25 26 26 26 26 26 26 27 28 28 28 29 30 30 31 31 31
14 12 11 13 12 10 10 10 9 9 7 7 7 7 6 6 6 6 6 6 6 7 7 8 7 6 5 5 5 4 4 4 4 5 4 5 5 5 5 11 6 5 4 4 4 5 7 3 4 3 4 3 1 2 5 7 10 18 20 13 11 18 21 23 23 24 24 24 25 26 26 27 28 28 29 28 28 28 29 29 29 30 31 31 32
10 10 12 12 12 12 10 10 9 9 8 8 8 8 8 8 7 7 7 5 7 8 7 7 7 7 6 5 4 3 3 4 4 5 5 5 5 5 4 3 6 11 6 7 1 3 6 3 1 2 2 2 2 5 6 7 6 14 15 10 10 12 20 23 23 24 25 26 27 28 28 28 29 29 29 29 28 28 29 29 29 29 30 30 31
11 11 12 12 12 12 12 11 11 10 9 9 9 9 9 9 8 9 8 7 7 8 7 7 6 6 5 5 5 4 3 3 3 4 5 4 5 5 5 5 4 4 7 6 6 3 0 4 0 2 3 3 4 1 3 4 7 12 10 10 10 9 16 22 24 25 25 27 28 28 28 28 29 29 29 29 30 30 29 31 31 30 31 31 32
12 11 12 14 13 13 12 12 11 11 11 10 10 10 10 8 8 8 7 7 7 6 6 6 6 5 4 4 3 4 2 3 4 3 3 4 5 5 5 4 4 5 3 7 9 3 6 3 4 3 2 0 3 6 4 6 11 15 10 10 10 10 19 23 24 25 26 28 28 27 27 28 29 30 30 30 30 31 32 31 31 31 32 32 33
13 13 13 13 13 13 12 12 12 12 11 11 10 10 9 9 8 8 7 7 7 7 6 6 5 5 5 4 3 3 2 3 3 3 3 3 4 4 4 4 4 3 4 4 10 2 5 1 0 1 2 5 6 7 8 8 9 14 12 10 10 17 25 19 24 25 25 25 26 27 28 29 30 31 31 31 31 31 31 31 32 32 33 33 33
14 15 14 15 15 15 13 13 12 12 12 11 11 11 10 9 9 8 8 8 7 7 6 5 5 5 5 4 4 4 3 3 3 3 3 3 3 4 3 3 2 2 1 5 9 17 3 9 4 6 6 6 6 9 10 9 9 15 12 13 13 18 13 11 18 22 24 26 27 28 29 30 30 30 30 30 31 32 32 32 32 32 32 32 32
15 16 16 16 16 15 15 14 15 14 14 12 11 10 10 9 8 8 8 8 8 6 7 6 5 5 5 5 4 4 4 4 3 3 3 3 2 3 3 3 3 2 2 4 10 16 12 4 10 4 2 5 10 7 13 9 11 11 11 11 12 10 11 11 11 17 22 25 27 28 30 30 30 30 29 30 31 32 32 32 32 32 32 31 32
13 16 17 15 15 16 15 15 14 13 12 12 11 10 10 10 9 7 8 9 8 7 7 7 6 6 5 5 4 4 4 4 3 4 4 4 4 4 4 3 4 4 2 4 8 10 21 6 8 10 5 3 12 4 11 15 11 11 15 11 10 10 10 10 10 11 20 24 28 30 31 31 31 31 31 31 31 32 32 32 31 32 31 32 32
11 12 14 15 15 15 14 14 14 13 13 12 11 11 11 11 11 9 9 9 10 10 9 8 7 6 6 5 5 5 3 4 5 5 4 4 4 5 4 3 3 3 3 4 6 11 14 17 5 14 10 5 8 13 10 11 14 11 13 13 9 8 8 10 11 10 18 25 29 31 31 31 30 30 31 31 31 31 32 32 32 33 32 32 32
13 11 10 12 13 15 15 14 14 13 13 11 11 10 11 11 11 11 10 10 9 9 8 8 8 7 7 6 5 5 5 5 5 5 4 4 6 5 5 4 3 4 4 4 7 8 12 15 15 6 14 10 8 8 10 11 12 13 10 12 11 11 9 10 11 12 14 24 28 29 29 29 30 30 31 32 33 32 32 33 33 32 32 31 32
12 11 11 11 12 13 14 15 14 13 13 12 12 11 10 10 10 10 10 10 9 9 8 8 8 8 7 7 6 6 5 5 5 5 5 7 6 5 5 4 4 4 4 5 7 8 11 15 18 13 9 13 10 10 9 12 12 11 12 13 12 12 13 11 10 11 17 23 25 28 29 29 30 32 33 32 33 33 33 33 33 32 32 32 32
12 11 14 13 13 13 12 12 13 13 12 12 13 12 11 10 9 9 9 9 9 8 8 8 7 7 7 6 6 6 6 7 6 6 7 8 6 5 5 4 4 5 6 7 8 9 10 15 15 19 15 11 17 12 5 14 13 13 15 13 11 10 11 13 10 8 8 9 9 11 17 22 24 29 31 31 32 32 34 33 33 33 33 32 32
14 13 13 14 12 13 12 11 12 13 12 11 11 11 11 10 10 10 10 9 8 7 7 8 7 7 6 6 6 7 8 8 7 7 7 7 6 6 6 6 6 7 7 7 8 10 11 12 14 14 17 15 11 16 11 6 13 11 14 18 20 9 8 13 17 10 8 10 15 21 20 23 28 25 28 32 32 32 33 32 32 34 33 32 32
15 15 15 14 12 11 12 12 11 11 12 11 11 11 10 11 10 10 10 9 9 8 8 7 7 6 6 7 7 8 8 8 8 7 7 6 5 6 6 6 7 7 8 8 9 10 11 12 12 13 11 13 13 11 12 12 14 13 8 11 21 22 18 14 12 11 9 12 14 12 13 17 19 24 28 28 30 31 31 30 31 32 33 31 30
12 13 12 12 13 12 11 12 12 11 12 12 10 11 11 11 9 10 10 10 10 9 8 8 7 7 7 7 8 8 8 11 14 12 10 9 6 6 7 8 8 8 8 8 8 9 11 11 13 11 13 15 14 15 14 12 14 17 14 11 15 17 18 18 19 13 9 11 12 12 13 10 11 12 11 12 13 18 22 27 24 30 30 31 34
13 12 12 12 13 14 14 12 11 11 10 9 12 18 14 11 11 9 8 9 9 8 9 8 8 8 8 8 8 13 15 15 14 14 15 15 14 10 7 6 7 7 7 8 8 8 8 8 8 10 13 14 16 15 17 16 11 17 18 16 20 19 17 21 19 14 7 8 14 13 11 8 9 12 11 12 13 13 11 11 12 17 25 33 34
13 13 13 14 13 12 14 14 14 11 10 9 19 20 20 19 11 10 9 9 8 9 8 8 8 9 8 9 8 11 12 12 11 15 14 15 14 14 16 16 13 9 7 8 9 9 10 13 13 13 14 17 18 18 16 19 18 15 19 17 16 20 18 17 21 21 9 6 10 14 11 10 9 14 14 14 12 10 11 13 24 31 33 33 34
12 12 13 14 13 12 11 11 12 11 10 14 22 22 21 21 16 10 8 9 9 9 9 9 8 8 8 8 8 7 8 9 7 7 10 12 13 13 14 15 16 18 18 13 11 10 10 11 13 13 15 16 20 11 16 13 16 20 17 18 21 16 20 21 17 21 17 9 12 15 14 14 8 13 16 14 13 11 14 22 30 33 35 35 34
11 14 14 12 12 11 12 13 12 10 9 17 21 22 21 21 21 15 8 9 9 9 9 9 9 8 8 9 8 7 6 12 9 7 6 6 10 13 14 15 17 18 18 21 22 17 12 13 14 14 12 12 16 20 15 18 16 20 23 17 15 19 17 17 24 16 20 12 11 14 18 20 9 12 15 16 11 11 15 22 32 35 35 35 35
13 12 12 14 12 12 12 13 11 10 10 17 22 23 22 23 22 17 9 10 8 9 10 10 9 10 10 9 8 8 7 7 6 6 5 5 5 6 7 8 9 13 17 21 23 24 20 15 14 17 19 15 17 20 20 17 21 16 17 19 21 16 21 19 20 23 20 12 12 15 17 20 13 12 16 17 12 11 14 20 30 33 34 35 34
15 15 15 14 13 12 11 11 10 11 10 20 23 23 23 24 23 16 8 9 9 8 9 10 9 10 10 9 8 6 5 4 5 6 6 6 6 7 8 9 9 9 11 11 9 10 13 15 16 18 18 16 17 15 17 14 17 17 16 19 20 19 18 18 16 20 16 14 10 11 17 16 9 11 16 15 14 13 13 19 29 33 35 35 35
9 9 8 10 12 13 12 12 11 11 11 22 23 24 25 25 25 12 10 10 8 8 8 8 9 9 8 6 4 4 3 4 8 13 11 7 6 7 8 9 8 8 10 14 20 20 16 14 14 15 15 17 22 22 21 19 16 14 16 15 14 15 15 17 19 17 17 11 8 12 15 18 19 10 14 10 12 14 13 13 20 31 33 34 35
12 12 13 13 12 13 14 13 13 12 11 20 25 25 25 26 20 9 10 8 7 7 7 9 8 8 6 4 3 3 4 5 9 12 12 11 7 7 8 8 9 11 11 9 15 20 23 25 26 28 30 31 30 29 29 33 26 20 14 14 17 13 12 16 16 15 17 13 7 11 15 20 18 10 13 9 11 14 14 14 12 20 31 33 34
13 13 11 11 10 11 14 15 14 14 12 18 26 25 25 27 16 10 9 8 7 7 7 7 5 5 6 10 7 5 6 7 10 12 12 10 7 7 8 11 12 10 10 11 12 11 18 24 27 28 26 24 26 31 32 30 29 23 13 15 15 12 17 16 19 18 21 18 11 9 13 18 15 11 13 13 14 12 13 13 13 16 26 28 34
11 9 10 10 10 9 10 12 15 15 13 16 26 25 26 26 17 9 9 8 8 7 6 6 6 5 6 7 11 10 9 8 12 12 13 11 6 8 10 10 9 11 12 12 11 11 11 11 11 8 10 16 15 14 16 27 28 24 17 17 13 13 16 17 17 17 18 15 6 11 15 14 10 13 11 11 13 11 10 12 12 13 12 12 14
Wind_Direction
149 150 141 137 141 141 136 130 123 134 103 75 89 83 63 63 61 58 52 40 32 23 18 10 7 5 5 346 342 337 334 329 326 326 327 326 326 322 331 333 335 340 345 347 346 348 349 351 352 355 356 356 355 354 357 356 355 354 351 348 347 346 343 338 333 331 331 334 336 334 326 318 312 306 305 308 306 298 291 285 274 264 258 256 256
152 150 144 146 144 142 133 142 137 152 123 109 117 106 110 84 76 70 64 48 38 16 23 7 2 359 357 344 335 329 323 321 321 324 323 326 326 324 326 327 329 335 341 344 347 349 352 354 355 356 355 356 356 358 0 359 357 354 352 350 347 347 348 347 344 339 335 332 330 331 332 329 322 313 305 303 302 301 298 295 289 275 261 257 255
151 152 146 145 146 145 146 150 139 153 141 131 135 125 115 107 103 92 78 65 46 24 27 9 356 351 347 342 327 326 321 319 317 322 327 322 320 316 311 317 323 328 334 341 346 350 352 354 354 355 353 354 356 358 358 356 355 354 353 352 350 350 350 350 350 347 342 338 334 331 330 331 332 332 327 317 305 296 296 295 291 289 278 263 261
154 153 151 149 150 148 155 148 156 168 143 135 119 111 109 114 101 92 89 82 56 37 22 22 355 341 337 332 325 323 319 317 318 324 320 318 315 311 313 318 321 325 332 339 346 347 350 352 352 351 350 352 354 355 354 353 353 352 352 352 350 351 352 354 353 349 346 343 341 339 337 336 335 333 332 332 329 315 296 293 291 288 287 282 272
159 156 153 149 148 149 156 157 162 156 148 134 112 104 94 88 69 79 76 71 65 33 30 27 3 337 332 319 325 315 310 313 313 320 321 317 317 315 317 317 316 322 332 338 340 341 343 348 349 346 346 347 349 350 350 350 350 350 350 350 348 350 354 356 354 350 347 345 343 341 339 337 335 333 331 331 328 325 315 299 290 289 287 285 280
156 156 150 147 150 154 156 160 164 150 140 122 114 115 110 97 107 89 87 76 63 38 27 9 348 325 321 312 314 305 308 307 310 313 313 310 311 313 310 310 312 316 324 332 334 334 338 340 340 341 339 342 345 346 346 347 347 348 348 345 344 347 352 354 354 352 350 348 347 345 343 342 340 338 334 329 326 324 321 316 302 289 284 281 282
160 153 153 149 153 156 161 168 157 146 135 139 129 125 116 122 128 106 94 78 72 58 41 10 337 328 317 314 304 306 301 299 307 310 310 304 311 307 309 311 314 318 321 331 333 339 340 337 335 336 338 341 342 342 344 344 345 346 345 341 340 345 348 350 350 348 348 347 345 342 340 340 339 338 337 336 333 326 320 318 314 305 294 286 277
159 155 151 155 155 160 168 161 156 139 137 142 126 131 121 112 122 136 105 59 54 34 39 1 330 315 310 304 297 295 296 299 302 303 299 307 305 309 312 310 309 312 327 336 342 340 337 332 332 335 340 344 342 338 342 342 343 345 343 340 340 342 342 344 344 345 345 345 341 339 338 338 337 335 333 332 331 330 326 320 316 312 305 297 291
160 158 148 155 156 158 169 162 150 144 147 144 132 139 129 121 99 85 99 97 61 28 7 2 329 312 308 304 296 294 292 293 291 290 303 305 307 304 304 311 321 333 332 336 343 349 337 332 333 336 342 344 341 338 340 341 343 342 339 336 336 335 336 338 340 342 343 341 338 336 335 335 335 333 332 331 329 327 325 324 320 314 311 307 298
160 156 149 155 158 160 166 160 150 144 143 134 137 125 119 126 109 67 84 84 63 44 357 343 331 316 315 305 298 291 286 286 283 290 299 307 314 322 323 323 332 328 331 344 355 354 347 336 335 339 341 339 338 340 340 339 338 336 332 329 328 329 332 335 335 337 337 335 333 333 334 334 334 333 332 331 331 329 325 322 321 318 312 307 306
162 160 155 159 159 163 163 165 154 151 142 131 131 128 108 83 116 80 47 78 104 77 358 327 320 313 305 298 295 289 286 274 276 278 284 284 307 324 337 332 334 333 336 347 0 1 347 335 332 337 334 333 339 345 342 337 336 333 329 327 327 328 330 331 330 331 332 331 329 330 330 331 331 330 328 327 325 325 325 324 323 320 317 312 304
167 164 157 159 161 167 165 165 161 151 147 143 153 148 142 121 118 108 81 49 45 59 11 340 311 296 289 299 291 290 288 273 256 257 272 319 317 324 328 313 332 323 337 349 356 348 346 351 355 348 342 336 340 342 338 335 335 331 327 325 325 325 325 325 325 327 328 326 325 326 328 327 326 325 325 324 323 321 320 319 319 318 318 317 316
168 163 165 162 164 163 161 171 163 156 155 163 158 154 151 148 137 108 107 77 51 7 351 27 5 329 322 311 311 295 289 234 231 176 354 326 331 342 307 334 331 339 321 346 353 358 8 357 347 344 339 335 330 332 333 334 333 330 325 322 320 320 320 321 322 324 325 323 322 323 324 324 323 323 322 321 320 320 320 318 317 315 315 314 314
169 169 166 167 165 169 172 173 166 162 158 148 150 149 142 135 133 76 24 125 117 39 356 80 18 24 327 334 324 321 325 33 185 273 4 0 345 15 347 353 328 321 341 3 354 0 351 343 340 330 320 319 321 328 330 330 330 327 322 319 320 318 318 319 320 322 321 320 319 320 321 321 321 320 320 319 318 317 317 317 316 315 313 312 312
174 174 171 173 171 168 176 171 168 160 150 156 157 155 159 164 171 147 120 47 104 70 45 68 140 266 217 35 349 6 329 358 303 320 342 302 306 11 0 343 319 325 346 356 343 338 336 333 324 309 299 302 312 318 321 321 320 320 320 320 319 319 318 317 317 318 318 318 319 320 320 320 319 319 318 318 317 315 314 314 314 313 312 312 311
177 175 175 174 172 174 168 170 173 170 163 158 163 167 163 165 167 175 149 121 129 96 64 71 106 53 15 64 253 110 340 329 327 294 266 265 284 341 6 333 316 331 5 4 336 338 320 316 300 290 283 290 308 313 314 315 317 318 316 316 324 325 320 316 315 316 317 318 318 319 319 319 318 318 318 317 315 314 313 312 312 310 309 309 310
179 181 177 176 173 171 173 174 171 172 164 163 167 172 170 170 172 168 171 144 146 138 60 79 70 61 143 63 356 4 206 268 330 287 355 317 345 338 329 331 324 331 354 327 340 320 303 296 281 277 279 293 301 299 304 309 313 308 311 317 318 318 319 316 314 314 315 316 317 318 317 316 317 316 316 315 314 312 310 309 308 307 307 306 305
181 180 179 171 176 176 174 173 174 173 173 171 160 152 166 170 187 170 156 162 138 135 132 53 94 104 124 130 165 207 299 278 28 308 312 264 261 234 228 230 290 322 332 336 319 294 287 287 280 275 286 298 296 302 305 305 302 299 304 311 317 316 314 312 311 312 313 315 317 316 315 315 314 315 314 313 312 311 309 308 307 305 304 303 301
183 180 180 178 174 175 177 180 177 174 170 158 163 170 170 176 178 168 171 147 131 125 149 159 39 48 92 111 89 91 146 358 299 319 319 341 255 317 295 247 311 327 292 269 267 278 282 274 277 284 294 295 301 303 306 300 297 299 307 313 313 312 310 308 307 309 312 313 313 314 314 314 314 315 315 314 312 310 308 306 305 304 303 302 300
178 182 179 179 175 176 179 177 177 178 169 172 168 166 161 171 177 174 162 155 144 135 147 152 135 183 58 38 355 33 73 99 58 238 274 306 303 210 222 136 360 270 267 251 248 270 273 264 269 288 293 299 307 305 302 300 300 301 307 304 310 310 309 308 310 311 309 309 311 311 311 311 311 312 312 310 308 307 305 303 302 301 300 299 299
183 179 182 180 178 178 177 177 177 179 175 165 164 165 168 165 164 163 166 158 144 140 129 151 135 156 106 23 68 344 4 349 190 126 245 313 297 315 304 243 251 228 194 255 270 261 262 266 257 279 291 297 296 299 303 307 303 304 299 299 305 309 311 312 311 309 309 310 310 309 308 308 309 310 310 310 309 307 305 303 301 300 298 297 296
185 184 179 181 179 175 178 182 181 177 174 171 164 166 169 170 173 168 163 150 143 136 141 145 140 140 141 150 133 74 39 334 235 185 230 195 259 293 308 323 329 301 277 247 234 286 279 258 284 283 282 284 291 295 296 293 291 292 287 291 307 314 313 311 309 310 311 312 311 310 309 309 308 308 308 308 306 304 303 302 301 299 298 296 295
180 187 185 179 179 177 180 185 180 179 172 170 174 172 172 171 171 164 160 154 152 143 134 132 133 139 153 160 178 173 192 187 196 189 181 234 269 251 267 276 280 301 308 323 307 289 272 275 274 281 291 295 295 303 299 289 291 286 292 311 317 314 313 311 312 311 309 307 307 305 305 305 306 306 305 303 301 299 297 295 295 295 295 295 294
184 183 188 181 176 180 180 178 184 181 182 175 169 168 166 160 164 162 164 156 149 142 137 134 139 145 166 171 176 176 186 201 216 201 200 239 228 265 275 278 263 235 287 312 312 306 306 295 255 264 268 284 293 287 293 304 309 315 324 322 322 318 315 314 312 308 305 304 303 303 302 302 302 301 300 298 297 295 294 293 292 291 291 290 290
192 187 191 181 179 177 180 184 186 190 176 171 171 165 162 162 163 163 161 165 164 151 143 150 150 157 177 181 175 178 199 201 198 200 225 226 230 274 264 244 265 282 276 240 294 306 295 301 304 272 267 260 257 280 308 333 327 334 337 332 326 319 314 310 307 304 302 301 302 301 301 300 299 299 298 298 296 293 292 292 292 292 291 289 288
185 193 186 180 183 186 181 182 179 173 174 174 169 167 163 161 162 161 165 168 154 145 141 142 147 160 157 167 179 188 204 202 209 216 238 247 260 260 290 273 256 262 250 261 220 327 309 267 278 287 299 309 316 330 353 6 8 343 330 323 318 312 310 307 306 305 304 303 302 302 302 302 300 300 299 297 295 294 292 292 292 291 291 290 289
191 188 174 181 182 175 178 176 176 176 172 171 167 162 160 153 159 161 160 165 159 147 144 145 151 159 166 170 180 186 210 207 210 240 222 233 247 267 288 315 306 208 249 210 237 188 243 267 227 229 236 271 336 23 29 8 344 328 319 318 309 306 307 307 305 305 304 303 302 302 301 301 300 298 296 295 294 293 293 291 289 289 289 290 290
186 176 181 178 177 176 174 178 173 172 174 171 167 166 165 161 162 164 167 175 160 154 153 149 157 164 169 169 164 201 194 211 219 230 232 234 241 242 254 260 296 308 328 299 120 285 192 203 335 224 249 126 69 71 2 341 319 310 312 306 303 304 306 305 304 303 303 302 302 302 301 299 297 295 294 293 292 292 290 290 290 289 287 286 286
182 180 174 178 176 174 175 174 175 175 173 174 171 169 169 168 169 168 172 174 162 159 151 151 159 158 160 166 177 185 200 212 227 225 235 241 233 236 231 231 241 285 321 294 321 267 7 121 197 300 123 119 98 52 354 316 307 306 298 295 292 293 297 299 301 302 303 302 302 300 298 296 294 293 292 292 290 289 289 288 288 287 286 285 283
176 176 174 175 176 176 175 175 175 174 177 174 173 173 170 173 172 175 172 163 156 149 153 149 156 156 156 155 166 182 198 208 217 226 228 229 231 233 224 229 201 221 268 296 298 148 279 228 196 210 170 312 354 328 334 301 300 300 291 288 290 283 293 297 299 300 300 300 299 297 296 295 293 292 291 290 290 290 288 288 288 287 285 285 283
175 175 176 175 175 178 176 176 175 177 175 176 173 173 173 169 173 171 171 165 160 157 158 152 159 152 155 166 165 186 191 208 215 218 223 211 230 213 230 216 221 217 250 267 291 257 130 353 55 98 52 322 318 314 306 293 293 297 291 284 283 289 295 294 295 296 296 296 296 295 294 292 290 289 290 290 290 288 287 287 286 285 284 283 282
178 174 175 179 178 176 178 175 176 175 176 177 177 175 173 175 170 169 175 167 163 160 157 152 153 155 158 168 175 177 182 179 200 212 211 228 215 222 216 210 214 200 200 266 261 270 223 286 249 268 284 300 304 298 287 290 286 283 283 283 281 287 288 284 286 290 293 292 290 289 290 290 288 289 289 289 289 288 288 286 285 284 283 282 280
177 176 180 181 178 177 174 176 177 178 178 178 179 174 174 172 174 171 170 168 161 158 152 154 155 157 163 168 170 174 168 189 204 204 217 214 216 221 220 210 239 228 236 261 272 283 284 203 278 227 257 312 291 281 287 280 285 284 267 276 280 278 279 281 283 282 284 287 287 288 290 291 290 290 290 289 289 288 287 286 284 283 281 281 280
184 184 181 178 178 175 175 177 178 178 179 177 175 174 174 172 172 170 171 167 163 160 158 162 161 165 163 169 178 169 170 188 197 207 212 217 214 226 229 222 236 253 227 265 270 280 289 278 284 289 263 256 285 258 287 298 283 282 289 280 272 270 275 277 278 278 276 282 286 288 291 292 292 291 291 291 289 288 286 285 284 282 282 283 281
188 188 186 179 176 174 175 176 176 177 178 177 178 176 177 174 172 172 173 171 169 166 167 168 163 158 164 173 181 165 170 190 208 212 207 207 214 223 233 215 237 243 248 249 274 281 285 291 295 296 295 281 276 295 286 282 289 287 287 286 273 268 268 270 274 274 276 280 286 289 292 293 291 290 290 290 288 285 284 282 283 283 282 281 279
186 187 183 183 176 176 176 175 177 176 175 176 176 180 178 175 174 173 172 174 172 170 165 160 160 165 169 174 180 174 180 197 211 206 206 205 221 230 225 229 219 245 247 246 258 268 288 292 294 281 300 299 285 275 288 284 286 293 281 280 283 279 266 265 260 271 273 279 284 289 292 292 291 288 286 286 285 282 281 280 280 280 280 280 280
190 177 177 179 182 180 180 178 175 175 176 173 175 178 179 179 176 171 172 170 170 166 162 162 164 164 170 177 176 170 179 197 210 207 207 212 222 211 223 215 224 235 236 246 254 258 273 280 289 287 288 291 283 283 292 293 295 287 284 282 286 284 281 261 260 268 272 279 283 287 289 287 286 286 283 281 281 281 278 278 279 278 278 279 279
181 186 179 178 181 185 181 177 174 173 173 176 178 177 176 174 172 172 168 167 166 163 161 163 161 166 173 175 176 175 185 200 211 212 211 216 214 212 208 216 223 230 239 243 249 252 254 269 279 293 290 287 301 283 291 301 298 303 300 287 274 273 280 286 271 264 267 271 272 273 277 278 278 278 280 279 280 279 279 277 277 276 276 277 278
177 182 188 181 181 178 177 172 175 174 173 174 175 176 174 173 172 170 168 165 163 158 161 161 162 166 172 176 181 189 197 206 210 213 216 215 213 214 211 220 226 235 243 247 248 254 255 264 271 271 285 289 280 292 300 263 282 289 299 306 299 278 267 285 295 293 278 267 263 269 276 283 284 284 280 280 280 279 281 279 276 276 275 275 275
182 183 182 185 179 173 173 172 173 169 170 174 176 175 175 173 171 170 169 164 160 157 158 161 164 169 178 188 195 200 205 208 209 213 209 211 208 214 222 220 227 235 244 249 250 252 258 260 263 280 276 284 293 269 281 298 296 286 273 289 296 304 306 289 267 279 286 279 284 279 263 268 272 273 274 275 274 277 278 280 277 276 276 274 276
179 181 178 177 173 174 170 171 169 170 174 178 177 174 171 174 172 169 168 165 161 160 158 164 170 176 186 194 201 206 206 211 217 218 215 213 208 218 225 220 227 235 241 248 249 251 257 262 270 272 278 282 281 288 293 290 288 287 299 291 285 291 297 297 296 286 273 274 268 269 278 260 264 264 263 265 262 261 262 262 267 271 274 277 279
175 172 174 178 179 176 171 170 170 173 179 176 179 178 176 170 169 166 161 163 160 159 161 164 173 181 189 193 202 212 216 218 222 226 229 231 229 225 218 211 220 223 232 244 250 251 253 255 257 276 280 279 285 287 291 292 289 296 295 299 296 297 298 293 287 284 287 273 285 274 263 260 266 275 265 262 263 253 253 252 255 266 270 271 272
174 173 173 175 180 181 176 172 173 176 177 175 179 181 180 176 166 163 163 164 163 162 165 164 173 182 188 195 200 212 216 222 227 232 238 240 244 248 252 256 255 251 246 253 254 258 268 270 274 273 270 279 283 290 287 293 298 299 300 298 293 295 293 290 296 297 272 271 277 281 273 264 262 276 274 265 259 250 252 256 265 270 271 271 272
176 169 176 181 177 175 174 174 175 175 174 178 182 182 180 177 171 166 162 164 165 166 169 173 176 179 184 193 203 202 212 217 216 227 236 241 246 250 254 258 261 262 262 261 267 266 264 272 277 273 279 279 287 288 294 300 299 296 290 290 289 283 286 287 280 285 293 293 277 283 280 268 238 257 267 262 256 250 250 261 266 272 272 273 273
164 175 181 171 178 173 173 173 175 174 172 180 183 182 181 178 173 167 167 165 168 169 172 176 178 179 186 196 202 206 201 217 221 219 209 226 246 255 261 263 266 266 268 268 269 270 276 274 271 275 275 291 291 288 286 290 289 290 290 282 281 283 278 276 277 280 283 282 277 275 279 278 261 258 262 265 256 253 257 261 266 270 271 271 272
174 174 173 177 172 175 175 175 173 172 171 185 184 183 182 179 175 169 171 167 164 171 175 179 181 186 194 196 195 207 204 205 209 206 212 216 218 235 244 247 246 256 263 266 269 271 275 277 282 281 280 273 272 282 283 285 285 282 285 284 287 282 281 272 276 280 281 286 272 282 277 276 268 258 265 269 264 250 254 259 263 268 270 270 272
176 179 177 177 177 172 172 170 169 174 179 186 186 185 183 180 177 166 166 169 170 174 179 182 186 192 197 197 204 204 205 211 208 220 217 225 227 235 237 238 244 245 256 261 261 265 266 264 264 266 272 275 274 280 286 286 283 278 273 275 281 284 286 289 287 281 281 279 271 261 272 277 261 243 260 270 270 259 255 258 263 269 270 271 271
175 167 171 171 170 172 172 170 170 177 180 189 187 186 185 184 178 165 170 172 169 169 175 184 190 192 195 206 196 209 218 224 236 241 243 241 239 242 252 254 257 261 263 265 268 270 269 268 271 275 279 282 284 285 286 287 290 293 296 296 296 295 296 293 287 291 282 280 262 264 266 273 273 263 270 259 260 264 259 252 256 265 268 270 271
173 177 177 177 175 173 173 175 175 178 181 192 188 185 184 184 181 155 166 164 167 160 168 179 183 197 200 186 194 202 224 225 240 248 253 258 264 264 262 268 268 265 260 259 274 280 280 281 281 283 284 285 286 289 294 297 295 298 302 296 287 294 289 285 281 283 279 284 254 259 268 271 273 275 277 261 258 261 262 260 256 260 266 270 269
179 181 172 172 178 178 176 179 181 177 180 190 187 185 183 185 173 158 164 159 149 156 165 172 160 183 203 207 209 215 230 241 249 257 264 267 267 266 274 270 266 265 277 286 288 280 282 284 282 281 282 287 294 296 295 295 293 294 286 280 286 295 285 284 286 288 290 284 275 255 256 258 273 267 267 268 264 249 255 259 257 259 264 266 265
175 167 171 173 175 180 185 182 181 180 177 187 186 185 184 185 172 154 158 155 157 163 167 166 175 188 202 213 221 224 230 243 253 260 266 269 274 271 266 274 280 285 286 291 289 286 272 263 272 292 295 293 294 292 288 290 290 289 283 277 281 274 276 279 280 285 285 275 263 233 255 265 266 262 261 279 272 259 237 254 248 252 253 254 255